GW0139 Weather Reports


time (UTC)temp
C
wind
direction
speed
KPH
gust
KPH
rain 1hr
cm
rain 24hr
cm
rain mn
cm
humidity
%
barometer
mb
20260504192352 26 215 6.4 8.0 0.00 0.00 0.00 69 1012.3
20260504191850 26 177 6.4 9.7 0.00 0.00 0.00 68 1012.3
20260504191348 26 135 1.6 3.2 0.00 0.00 0.00 68 1012.3
20260504190843 25 177 3.2 3.2 0.00 0.00 0.00 71 1012.5
20260504190339 25 186 4.8 4.8 0.00 0.00 0.00 70 1012.4
20260504185836 25 108 3.2 4.8 0.00 0.00 0.00 71 1012.5
20260504185333 26 174 3.2 4.8 0.00 0.00 0.00 69 1012.6
20260504184829 26 208 6.4 8.0 0.00 0.00 0.00 69 1012.6
20260504184325 26 145 4.8 8.0 0.00 0.00 0.00 69 1012.6
20260504183821 26 183 6.4 8.0 0.00 0.00 0.00 69 1012.6
20260504183319 25 171 6.4 8.0 0.00 0.00 0.00 70 1012.9
20260504182816 25 164 8.0 9.7 0.00 0.00 0.00 71 1012.8
20260504182314 26 178 3.2 4.8 0.00 0.00 0.00 70 1012.8
20260504181811 26 193 9.7 11.3 0.00 0.00 0.00 68 1012.9
20260504181308 25 222 4.8 4.8 0.00 0.00 0.00 68 1013.1
20260504180807 26 204 4.8 4.8 0.00 0.00 0.00 67 1013.0
20260504180305 26 207 3.2 4.8 0.00 0.00 0.00 69 1013.2
20260504175803 26 225 4.8 4.8 0.00 0.00 0.00 68 1013.2
20260504175259 25 117 3.2 3.2 0.00 0.00 0.00 67 1013.1
20260504174757 25 151 6.4 8.0 0.00 0.00 0.00 68 1013.1
20260504174255 25 175 6.4 11.3 0.00 0.00 0.00 67 1013.4
20260504173751 26 207 3.2 3.2 0.00 0.00 0.00 68 1013.6
20260504173248 26 210 4.8 8.0 0.00 0.00 0.00 65 1013.6
20260504172745 25 177 4.8 4.8 0.00 0.00 0.00 69 1013.6
20260504172241 25 187 6.4 8.0 0.00 0.00 0.00 69 1013.5
20260504171737 25 242 4.8 4.8 0.00 0.00 0.00 67 1013.7
20260504171235 25 177 6.4 9.7 0.00 0.00 0.00 68 1013.8
20260504170732 25 195 3.2 4.8 0.00 0.00 0.00 68 1014.0
20260504170229 25 124 8.0 11.3 0.00 0.00 0.00 68 1014.0
20260504160147 24 191 4.8 8.0 0.00 0.00 0.00 71 1014.4
20260504151115 24 190 6.4 9.7 0.00 0.00 0.00 71 1014.4
20260504150612 24 208 4.8 4.8 0.00 0.00 0.00 72 1014.6
20260504150109 23 210 1.6 1.6 0.00 0.00 0.00 73 1014.8
20260504141038 23 202 3.2 4.8 0.00 0.00 0.00 75 1014.1
20260504140534 22 185 4.8 8.0 0.00 0.00 0.00 78 1014.4
20260504130459 17 177 0.0 0.0 0.00 0.00 0.00 96 1014.1
20260504110346 12 194 0.0 0.0 0.00 0.00 0.00 99 1014.0
20260504100303 13 196 0.0 0.0 0.00 0.00 0.00 98 1014.3
20260504081657 13 196 0.0 0.0 0.00 0.00 0.00 95 1014.6
20260504081153 13 196 0.0 0.0 0.00 0.00 0.00 95 1015.0
20260504080649 13 196 0.0 0.0 0.00 0.00 0.00 95 1015.1
20260504080146 13 196 0.0 0.0 0.00 0.00 0.00 95 1015.0
20260504070114 13 194 0.0 0.0 0.00 0.00 0.00 95 1015.7
20260504050503 13 195 0.0 0.0 0.00 0.00 0.00 96 1017.0
20260504045959 13 195 0.0 0.0 0.00 0.00 0.00 96 1016.9
20260504045455 13 195 0.0 0.0 0.00 0.00 0.00 96 1016.7
20260504044951 13 195 0.0 0.0 0.00 0.00 0.00 95 1016.8
20260504044449 13 195 0.0 0.0 0.00 0.00 0.00 95 1017.0
20260504043946 13 195 0.0 0.0 0.00 0.00 0.00 95 1017.1
20260504043443 13 195 0.0 0.0 0.00 0.00 0.00 95 1017.1
20260504042941 13 195 0.0 0.0 0.00 0.00 0.00 95 1017.0
20260504042437 13 195 0.0 0.0 0.00 0.00 0.00 94 1016.9
20260504041934 13 195 0.0 0.0 0.00 0.00 0.00 94 1017.1
20260504041430 13 195 0.0 0.0 0.00 0.00 0.00 94 1016.8
20260504040926 13 195 0.0 0.0 0.00 0.00 0.00 94 1016.8
20260504040424 13 195 0.0 0.0 0.00 0.00 0.00 93 1016.9
20260504035920 13 195 0.0 0.0 0.00 0.00 0.00 93 1017.0
20260504035417 13 195 0.0 0.0 0.00 0.00 0.00 92 1017.0
20260504034914 13 195 0.0 0.0 0.00 0.00 0.00 92 1017.0
20260504034412 14 195 0.0 0.0 0.00 0.00 0.00 91 1017.0
20260504033908 14 195 0.0 0.0 0.00 0.00 0.00 91 1016.7
20260504033406 14 195 0.0 0.0 0.00 0.00 0.00 91 1016.9
20260504032903 14 195 0.0 0.0 0.00 0.00 0.00 90 1016.9
20260504032400 15 195 0.0 0.0 0.00 0.00 0.00 90 1017.0
20260504031856 15 195 0.0 0.0 0.00 0.00 0.00 90 1016.8
20260504031353 15 195 0.0 0.0 0.00 0.00 0.00 89 1016.9
20260504030850 15 195 0.0 0.0 0.00 0.00 0.00 88 1016.8
20260504030347 15 195 0.0 0.0 0.00 0.00 0.00 87 1016.7
20260504025843 15 195 0.0 0.0 0.00 0.00 0.00 87 1016.9
20260504025340 15 195 0.0 0.0 0.00 0.00 0.00 86 1016.8
20260504024837 15 195 0.0 0.0 0.00 0.00 0.00 86 1017.0
20260504024333 15 195 0.0 0.0 0.00 0.00 0.00 86 1016.9
20260504023830 15 195 0.0 0.0 0.00 0.00 0.00 85 1017.1
20260504023327 16 195 0.0 0.0 0.00 0.00 0.00 85 1016.8
20260504022823 16 194 0.0 0.0 0.00 0.00 0.00 85 1017.1
20260504022320 15 193 0.0 0.0 0.00 0.00 0.00 84 1016.6
20260504021816 15 193 0.0 0.0 0.00 0.00 0.00 83 1016.8
20260504021314 15 194 0.0 0.0 0.00 0.00 0.00 82 1016.9
20260504020811 16 194 0.0 0.0 0.00 0.00 0.00 82 1016.7
20260504020308 16 194 0.0 0.0 0.00 0.00 0.00 82 1016.9
20260504015803 16 194 0.0 0.0 0.00 0.00 0.00 81 1016.9
20260504015300 17 184 0.0 0.0 0.00 0.00 0.00 80 1016.7
20260504014755 17 184 0.0 0.0 0.00 0.00 0.00 78 1016.9
20260504014252 17 184 0.0 0.0 0.00 0.00 0.00 77 1016.8
20260504013750 17 184 0.0 0.0 0.00 0.00 0.00 76 1016.9
20260504013247 17 184 0.0 0.0 0.00 0.00 0.00 76 1017.0
20260504012743 17 183 0.0 0.0 0.00 0.00 0.00 74 1017.0
20260504012242 18 183 0.0 0.0 0.00 0.00 0.00 74 1016.8
20260504011738 18 186 0.0 0.0 0.00 0.00 0.00 73 1016.9
20260504011235 18 183 0.0 0.0 0.00 0.00 0.00 74 1016.9
20260504010731 18 185 0.0 0.0 0.00 0.00 0.00 71 1016.7
20260504010227 19 183 0.0 0.0 0.00 0.00 0.00 70 1016.8
20260504005724 19 181 0.0 0.0 0.00 0.00 0.00 68 1016.8
20260504005221 20 181 0.0 0.0 0.00 0.00 0.00 69 1016.9
20260504004719 20 181 0.0 0.0 0.00 0.00 0.00 68 1016.8
20260504004215 20 182 0.0 0.0 0.00 0.00 0.00 64 1016.8
20260504003712 20 193 0.0 0.0 0.00 0.00 0.00 65 1016.8
20260504003209 20 185 0.0 1.6 0.00 0.00 0.00 65 1016.8
20260504002706 20 177 1.6 1.6 0.00 0.00 0.00 63 1016.9
20260504002203 21 175 0.0 1.6 0.00 0.00 0.00 63 1016.6
20260504001701 21 168 3.2 3.2 0.00 0.00 0.00 59 1016.5
20260504001156 21 172 0.0 1.6 0.00 0.00 0.00 60 1016.8
20260504000654 22 182 1.6 3.2 0.00 0.00 0.00 57 1016.8
20260504000151 22 167 4.8 4.8 0.00 0.00 0.00 56 1016.7
20260503235649 22 151 3.2 3.2 0.00 0.00 0.00 56 1016.8
20260503235145 22 93 0.0 1.6 0.00 0.00 0.00 56 1016.6
20260503234644 22 128 4.8 8.0 0.00 0.00 0.00 54 1016.9
20260503234142 22 149 3.2 4.8 0.00 0.00 0.00 55 1017.0
20260503233638 22 114 1.6 1.6 0.00 0.00 0.00 55 1017.2
20260503233133 22 165 3.2 3.2 0.00 0.00 0.00 54 1016.9
20260503232631 22 166 4.8 4.8 0.00 0.00 0.00 55 1017.3
20260503232128 22 176 1.6 3.2 0.00 0.00 0.00 54 1017.1
20260503231626 22 127 3.2 3.2 0.00 0.00 0.00 54 1017.1
20260503231122 23 176 4.8 4.8 0.00 0.00 0.00 53 1017.2
20260503230619 23 169 3.2 3.2 0.00 0.00 0.00 52 1017.3
20260503230117 23 143 3.2 3.2 0.00 0.00 0.00 50 1017.4
20260503225614 23 149 4.8 8.0 0.00 0.00 0.00 51 1017.4
20260503225113 23 154 4.8 4.8 0.00 0.00 0.00 50 1017.2
20260503224611 23 164 6.4 9.7 0.00 0.00 0.00 51 1017.5
20260503224109 24 190 3.2 3.2 0.00 0.00 0.00 52 1017.5
20260503223607 24 192 1.6 3.2 0.00 0.00 0.00 48 1017.8
20260503223102 24 191 4.8 4.8 0.00 0.00 0.00 50 1017.9
20260503222600 24 209 8.0 9.7 0.00 0.00 0.00 48 1017.6
20260503222058 24 227 4.8 4.8 0.00 0.00 0.00 47 1017.5
20260503221556 24 182 6.4 11.3 0.00 0.00 0.00 50 1017.6
20260503221053 24 188 4.8 4.8 0.00 0.00 0.00 50 1017.6
20260503220549 23 198 4.8 4.8 0.00 0.00 0.00 47 1017.6
20260503220046 24 110 3.2 3.2 0.00 0.00 0.00 48 1017.4
20260503215543 24 151 4.8 4.8 0.00 0.00 0.00 48 1017.8
20260503215040 25 154 8.0 9.7 0.00 0.00 0.00 46 1018.0
20260503214538 24 183 4.8 4.8 0.00 0.00 0.00 47 1017.8
20260503214035 24 175 1.6 1.6 0.00 0.00 0.00 45 1017.8
20260503213533 25 141 0.0 1.6 0.00 0.00 0.00 48 1018.0
20260503213030 25 210 4.8 4.8 0.00 0.00 0.00 49 1018.0
20260503212527 25 167 8.0 9.7 0.00 0.00 0.00 45 1018.1
20260503212024 24 135 3.2 3.2 0.00 0.00 0.00 46 1018.4
20260503211521 25 162 8.0 9.7 0.00 0.00 0.00 47 1018.3
20260503211017 25 253 1.6 1.6 0.00 0.00 0.00 50 1018.2
20260503210514 24 200 4.8 4.8 0.00 0.00 0.00 48 1018.3
20260503210009 25 154 3.2 4.8 0.00 0.00 0.00 47 1018.5
20260503205506 25 169 4.8 8.0 0.00 0.00 0.00 48 1018.4
20260503205002 25 150 1.6 3.2 0.00 0.00 0.00 51 1018.4
20260503204500 25 174 4.8 4.8 0.00 0.00 0.00 47 1018.4
20260503203956 25 207 1.6 3.2 0.00 0.00 0.00 47 1018.5
20260503203454 25 169 1.6 3.2 0.00 0.00 0.00 47 1018.7
20260503202950 25 229 3.2 3.2 0.00 0.00 0.00 48 1018.9
20260503202449 25 193 3.2 3.2 0.00 0.00 0.00 49 1019.0
20260503201947 25 107 8.0 9.7 0.00 0.00 0.00 46 1019.0
20260503201444 25 175 3.2 4.8 0.00 0.00 0.00 44 1019.0
20260503200941 25 193 3.2 4.8 0.00 0.00 0.00 46 1018.9
20260503200438 25 195 3.2 3.2 0.00 0.00 0.00 45 1019.1
20260503195934 25 160 4.8 8.0 0.00 0.00 0.00 45 1019.2
20260503195432 25 205 8.0 9.7 0.00 0.00 0.00 47 1019.2
20260503194928 25 204 1.6 3.2 0.00 0.00 0.00 46 1019.3
20260503194425 25 191 4.8 8.0 0.00 0.00 0.00 46 1019.4
20260503193920 25 124 4.8 8.0 0.00 0.00 0.00 46 1019.3
20260503193416 24 166 8.0 12.9 0.00 0.00 0.00 48 1019.5
20260503192912 25 110 4.8 8.0 0.00 0.00 0.00 49 1019.5